Location: Plainartige
(45.6866°N, 1.7993°E)
Time: 22:22:29
(UTC+00:00)

DIWATA 2B (PO-101) - Pass Details

Date: 03 July 2022
Orbit: 583 x 599 km, 98.0° (Epoch: 16 August)

Event Time Altitude Azimuth Distance (km) Brightness Sun altitude
Exits shadow 00:19:32 - 107° (ESE) 2,342 ? -21.1°
Reaches altitude 10° 00:21:04 10° 92° (E) 1,942 ? -21.1°
Maximum altitude 00:23:16 14° 61° (ENE) 1,694 ? -21.1°
Drops below altitude 10° 00:25:27 10° 29° (NNE) 1,949 ? -21.0°
Sets 00:28:32 0° 5° (N) 2,857 ? -21.0°
